Date String (YYYY-MM-DD hh:mm:ss) UTC,Instrument flags,Ambient pressure (hPa),Sample flow (lpm),Bypass flow (lpm),Sample temperature (°C),Ambient temperature (°C),ASC tube jacket temperature (°C),LED temperature (°C),Box temperature (°C),Sample RH (%),Span deviation,Mass concentration (μg/m³),Mass concentration (μg/m³),Mass concentration (μg/m³)
DateTimeUTC,F1_M11,P_M11,Q1_M11,Q2_M11,T1_M11,T2_M11,T3_M11,T4_M11,T5_M11,U1_M11,ZSPAN_M11,X0_M11,X2_M11,X1_M11
2022-02-15 13:00:00,,0816.4,5.01,0.00,22.0,21.3,00.0,31.1,23.8,04.9,0000.0,0003.24,0001.64,0001.26
2022-02-15 13:01:00,,0816.5,4.99,0.00,22.0,21.3,00.0,31.1,23.7,05.2,0000.0,0003.06,0001.59,0001.26
2022-02-15 13:02:00,,0816.5,4.99,0.00,22.0,21.4,00.0,31.1,23.8,05.4,0000.0,0002.95,0001.56,0001.25
2022-02-15 13:03:00,,0816.5,5.01,0.00,22.1,21.9,00.0,31.1,23.9,05.4,0000.0,0002.96,0001.58,0001.25
2022-02-15 13:04:00,,0816.5,5.01,0.00,22.2,22.6,00.0,31.2,24.2,05.5,0000.0,0003.11,0001.64,0001.25
2022-02-15 13:05:00,,0816.5,4.99,0.00,22.3,22.8,00.0,31.2,24.4,05.8,0000.0,0003.20,0001.67,0001.26
2022-02-15 13:06:00,,0816.4,5.00,0.00,22.4,22.6,00.0,31.2,24.4,05.6,0000.0,0003.29,0001.70,0001.26
2022-02-15 13:07:00,,0816.4,4.99,0.00,22.4,22.5,00.0,31.2,24.4,05.5,0000.0,0002.87,0001.72,0001.27
2022-02-15 13:08:00,,0816.4,5.00,0.00,22.4,22.4,00.0,31.2,24.3,05.2,0000.0,0003.09,0001.70,0001.26
2022-02-15 13:09:00,,0816.4,5.01,0.00,22.4,22.3,00.0,31.3,24.3,05.0,0000.0,0004.80,0001.67,0001.26
2022-02-15 13:10:00,,0816.4,5.00,0.00,22.4,22.2,00.0,31.3,24.3,05.4,0000.0,0005.07,0001.69,0001.26
2022-02-15 13:11:00,,0816.4,4.99,0.00,22.4,22.1,00.0,31.3,24.3,05.7,0000.0,0005.08,0001.66,0001.25
2022-02-15 13:12:00,,0816.4,5.02,0.00,22.4,22.0,00.0,31.3,24.3,05.5,0000.0,0005.30,0001.68,0001.25
2022-02-15 13:13:00,,0816.4,4.99,0.00,22.4,22.0,00.0,31.3,24.3,05.5,0000.0,0005.34,0001.68,0001.24
2022-02-15 13:14:00,,0816.4,5.01,0.00,22.5,22.0,00.0,31.3,24.3,05.4,0000.0,0005.36,0001.71,0001.25
2022-02-15 13:15:00,,0816.4,4.99,0.00,22.5,22.0,00.0,31.3,24.3,05.4,0000.0,0005.13,0001.63,0001.25
2022-02-15 13:16:00,,0816.4,4.99,0.00,22.5,22.0,00.0,31.4,24.3,05.7,0000.0,0005.22,0001.63,0001.25
2022-02-15 13:17:00,,0816.4,5.02,0.00,22.5,22.0,00.0,31.4,24.3,05.6,0000.0,0005.38,0001.65,0001.25
2022-02-15 13:18:00,,0816.4,5.00,0.00,22.5,21.9,00.0,31.4,24.3,05.6,0000.0,0005.35,0001.63,0001.24
2022-02-15 13:19:00,,0816.5,5.00,0.00,22.5,21.9,00.0,31.4,24.3,05.8,0000.0,0005.09,0001.60,0001.24
2022-02-15 13:20:00,,0816.6,5.02,0.00,22.5,21.9,00.0,31.4,24.3,05.9,0000.0,0003.61,0001.61,0001.24
2022-02-15 13:21:00,,0816.4,4.98,0.00,22.5,21.9,00.0,31.4,24.3,05.9,0000.0,0003.09,0001.64,0001.25
2022-02-15 13:22:00,,0816.5,5.01,0.00,22.5,21.9,00.0,31.4,24.3,05.9,0000.0,0003.07,0001.67,0001.26
2022-02-15 13:23:00,,0816.4,4.99,0.00,22.5,21.9,00.0,31.4,24.3,06.1,0000.0,0003.00,0001.69,0001.26
2022-02-15 13:24:00,,0816.4,5.00,0.00,22.5,21.9,00.0,31.4,24.3,06.1,0000.0,0003.48,0001.72,0001.27
2022-02-15 13:25:00,,0816.4,5.00,0.00,22.5,21.9,00.0,31.4,24.3,05.9,0000.0,0003.76,0001.71,0001.28
2022-02-15 13:26:00,,0816.4,4.99,0.00,22.5,21.9,00.0,31.4,24.3,05.8,0000.0,0003.87,0001.75,0001.30
2022-02-15 13:27:00,,0816.4,5.01,0.00,22.5,21.9,00.0,31.4,24.3,06.0,0000.0,0003.94,0001.78,0001.31
2022-02-15 13:28:00,,0816.4,5.00,0.00,22.5,21.9,00.0,31.4,24.3,05.8,0000.0,0003.74,0001.77,0001.30
2022-02-15 13:29:00,,0816.3,5.00,0.00,22.5,21.9,00.0,31.4,24.3,05.0,0000.0,0003.74,0001.76,0001.31
2022-02-15 13:30:00,,0816.3,4.99,0.00,22.5,21.8,00.0,31.4,24.3,04.9,0000.0,0003.87,0001.81,0001.31
2022-02-15 13:31:00,,0816.4,5.01,0.00,22.5,21.8,00.0,31.4,24.3,05.0,0000.0,0003.87,0001.83,0001.31
2022-02-15 13:32:00,,0816.4,4.98,0.00,22.4,21.8,00.0,31.4,24.2,05.4,0000.0,0003.92,0001.81,0001.32
2022-02-15 13:33:00,,0816.4,4.99,0.00,22.4,21.8,00.0,31.4,24.2,05.8,0000.0,0003.76,0001.75,0001.32
2022-02-15 13:34:00,,0816.4,5.02,0.00,22.4,21.7,00.0,31.4,24.2,05.5,0000.0,0003.73,0001.75,0001.32
2022-02-15 13:35:00,,0816.3,4.98,0.00,22.4,21.7,00.0,31.4,24.1,05.5,0000.0,0003.10,0001.72,0001.33
2022-02-15 13:36:00,,0816.3,5.02,0.00,22.4,21.6,00.0,31.4,24.1,05.5,0000.0,0002.75,0001.69,0001.32
2022-02-15 13:37:00,,0816.2,4.99,0.00,22.3,21.6,00.0,31.4,24.1,05.4,0000.0,0002.68,0001.67,0001.30
2022-02-15 13:38:00,,0816.2,5.01,0.00,22.3,21.6,00.0,31.4,24.1,05.7,0000.0,0002.73,0001.69,0001.30
2022-02-15 13:39:00,,0816.2,5.00,0.00,22.3,21.6,00.0,31.4,24.0,05.8,0000.0,0002.64,0001.68,0001.31
2022-02-15 13:40:00,,0816.1,5.01,0.00,22.3,21.6,00.0,31.4,24.0,05.5,0000.0,0002.57,0001.67,0001.32
2022-02-15 13:41:00,,0816.2,4.99,0.00,22.3,21.6,00.0,31.4,24.0,05.3,0000.0,0002.49,0001.64,0001.32
2022-02-15 13:42:00,,0816.2,5.00,0.00,22.3,21.7,00.0,31.4,24.1,05.1,0000.0,0002.35,0001.61,0001.31
2022-02-15 13:43:00,,0816.2,5.01,0.00,22.3,21.7,00.0,31.4,24.1,05.2,0000.0,0002.18,0001.59,0001.32
2022-02-15 13:44:00,,0816.3,4.99,0.00,22.3,21.7,00.0,31.3,24.1,05.2,0000.0,0002.52,0001.59,0001.33
2022-02-15 13:45:00,,0816.3,5.01,0.00,22.3,21.7,00.0,31.3,24.1,05.3,0000.0,0002.74,0001.62,0001.32
2022-02-15 13:46:00,,0816.2,5.00,0.00,22.3,21.6,00.0,31.3,24.1,05.2,0000.0,0002.87,0001.64,0001.31
2022-02-15 13:47:00,,0816.2,4.99,0.00,22.3,21.6,00.0,31.3,24.0,05.2,0000.0,0002.77,0001.63,0001.30
2022-02-15 13:48:00,,0816.2,5.01,0.00,22.3,21.6,00.0,31.3,24.1,05.4,0000.0,0002.72,0001.60,0001.30
2022-02-15 13:49:00,,0816.1,4.99,0.00,22.3,21.6,00.0,31.3,24.1,06.0,0000.0,0002.76,0001.58,0001.29
2022-02-15 13:50:00,,0816.1,5.02,0.00,22.3,21.6,00.0,31.3,24.1,05.7,0000.0,0002.79,0001.59,0001.29
2022-02-15 13:51:00,,0816.2,4.99,0.00,22.3,21.6,00.0,31.3,24.1,05.6,0000.0,0002.85,0001.62,0001.29
2022-02-15 13:52:00,,0816.2,5.01,0.00,22.3,21.6,00.0,31.3,24.1,05.4,0000.0,0002.89,0001.63,0001.29
2022-02-15 13:53:00,,0816.3,4.99,0.00,22.2,21.5,00.0,31.3,24.0,05.3,0000.0,0002.98,0001.68,0001.30
2022-02-15 13:54:00,,0816.3,5.01,0.00,22.2,21.5,00.0,31.3,24.0,05.4,0000.0,0003.03,0001.69,0001.29
2022-02-15 13:55:00,,0816.3,4.99,0.00,22.2,21.5,00.0,31.3,24.0,05.8,0000.0,0002.89,0001.71,0001.27
2022-02-15 13:56:00,,0816.3,5.01,0.00,22.2,21.5,00.0,31.3,23.9,05.6,0000.0,0002.95,0001.75,0001.27
2022-02-15 13:57:00,,0816.2,4.99,0.00,22.2,21.6,00.0,31.3,24.0,05.5,0000.0,0002.85,0001.70,0001.26
2022-02-15 13:58:00,,0816.2,5.01,0.00,22.2,21.6,00.0,31.3,24.0,05.9,0000.0,0002.92,0001.71,0001.26
2022-02-15 13:59:00,,0816.3,5.00,0.00,22.2,21.6,00.0,31.3,24.0,06.3,0000.0,0003.08,0001.75,0001.28
